Terminal Aerodrome Forecast
Issued by NWS Sterling, VA

Home | Current Version | Previous Version | Text Only | Print | Product List | Glossary On
Versions: 1 2 3 4 5 6 7 8 9 10 11 12 13 14 15 16 17 18 19 20 21 22 23 24
000
FTUS41 KLWX 300800 AAA
TAFDCA
TAF AMD
KDCA 300829Z 3008/3106 35003KT P6SM BKN250
     FM301400 27006KT P6SM BKN050
     FM302200 22006KT P6SM SCT050
     FM310100 19006KT P6SM BKN090=

USA.gov is the U.S. government's official web portal to all federal, state and local government web resources and services.